| time (UTC) | temp C | wind direction | speed KPH | gust KPH | rain 1hr cm | rain 24hr cm | rain mn cm | humidity % | barometer mb |
| 20260506155737 | 17 | 0.0 | 0.0 | 0.00 | 0.00 | 0.00 | 89 | 1006.1 | |
| 20260506154733 | 18 | 0.0 | 0.0 | 0.00 | 0.00 | 0.00 | 90 | 1005.2 | |
| 20260506153732 | 18 | 0.0 | 0.0 | 0.00 | 0.00 | 0.00 | 88 | 1005.2 | |
| 20260506152733 | 18 | 0.0 | 0.0 | 0.00 | 0.00 | 0.00 | 85 | 1005.3 | |
| 20260506151733 | 18 | 0.0 | 0.0 | 0.00 | 0.00 | 0.00 | 81 | 1005.6 | |
| 20260506145733 | 23 | 0.0 | 0.0 | 0.00 | 0.00 | 0.00 | 40 | 1005.8 | |
| 20260506144733 | 25 | 0.0 | 0.0 | 0.00 | 0.00 | 0.00 | 37 | 1005.4 | |
| 20260506143733 | 25 | 0.0 | 0.0 | 0.00 | 0.00 | 0.00 | 38 | 1005.4 | |
| 20260506142733 | 25 | 0.0 | 0.0 | 0.00 | 0.00 | 0.00 | 36 | 1005.6 | |
| 20260506141734 | 26 | 0.0 | 0.0 | 0.00 | 0.00 | 0.00 | 35 | 1005.6 | |
| 20260506140733 | 26 | 0.0 | 0.0 | 0.00 | 0.00 | 0.00 | 36 | 1005.7 | |
| 20260506135733 | 26 | 0.0 | 0.0 | 0.00 | 0.00 | 0.00 | 36 | 1005.7 | |
| 20260506134733 | 25 | 0.0 | 0.0 | 0.00 | 0.00 | 0.00 | 37 | 1005.9 | |
| 20260506133733 | 25 | 0.0 | 0.0 | 0.00 | 0.00 | 0.00 | 37 | 1006.0 | |
| 20260506132733 | 25 | 0.0 | 0.0 | 0.00 | 0.00 | 0.00 | 37 | 1006.1 | |
| 20260506131733 | 25 | 0.0 | 0.0 | 0.00 | 0.00 | 0.00 | 37 | 1006.4 | |
| 20260506130733 | 24 | 0.0 | 0.0 | 0.00 | 0.00 | 0.00 | 40 | 1006.5 | |
| 20260506125733 | 24 | 0.0 | 0.0 | 0.00 | 0.00 | 0.00 | 39 | 1006.6 | |
| 20260506124733 | 23 | 0.0 | 0.0 | 0.00 | 0.00 | 0.00 | 42 | 1006.7 | |
| 20260506123733 | 22 | 0.0 | 0.0 | 0.00 | 0.00 | 0.00 | 44 | 1007.0 | |
| 20260506122733 | 23 | 0.0 | 0.0 | 0.00 | 0.00 | 0.00 | 41 | 1007.2 | |
| 20260506121733 | 23 | 0.0 | 0.0 | 0.00 | 0.00 | 0.00 | 42 | 1007.2 | |
| 20260506120733 | 22 | 0.0 | 0.0 | 0.00 | 0.00 | 0.00 | 42 | 1007.2 | |
| 20260506115733 | 23 | 0.0 | 0.0 | 0.00 | 0.00 | 0.00 | 41 | 1007.3 | |
| 20260506114733 | 24 | 0.0 | 0.0 | 0.00 | 0.00 | 0.00 | 41 | 1007.4 | |
| 20260506113733 | 23 | 0.0 | 0.0 | 0.00 | 0.00 | 0.00 | 43 | 1007.5 | |
| 20260506112733 | 23 | 0.0 | 0.0 | 0.00 | 0.00 | 0.00 | 44 | 1007.7 | |
| 20260506111733 | 22 | 0.0 | 0.0 | 0.00 | 0.00 | 0.00 | 44 | 1007.7 | |
| 20260506110733 | 22 | 0.0 | 0.0 | 0.00 | 0.00 | 0.00 | 49 | 1007.8 | |
| 20260506105733 | 21 | 0.0 | 0.0 | 0.00 | 0.00 | 0.00 | 50 | 1007.8 | |
| 20260506104733 | 21 | 0.0 | 0.0 | 0.00 | 0.00 | 0.00 | 49 | 1007.9 | |
| 20260506103733 | 21 | 0.0 | 0.0 | 0.00 | 0.00 | 0.00 | 51 | 1007.9 | |
| 20260506102733 | 21 | 0.0 | 0.0 | 0.00 | 0.00 | 0.00 | 53 | 1008.1 | |
| 20260506101733 | 20 | 0.0 | 0.0 | 0.00 | 0.00 | 0.00 | 55 | 1008.1 | |
| 20260506100733 | 20 | 0.0 | 0.0 | 0.00 | 0.00 | 0.00 | 53 | 1008.2 | |
| 20260506095733 | 20 | 0.0 | 0.0 | 0.00 | 0.00 | 0.00 | 56 | 1008.1 | |
| 20260506094733 | 20 | 0.0 | 0.0 | 0.00 | 0.00 | 0.00 | 56 | 1008.2 | |
| 20260506093733 | 20 | 0.0 | 0.0 | 0.00 | 0.00 | 0.00 | 57 | 1008.1 | |
| 20260506092733 | 20 | 0.0 | 0.0 | 0.00 | 0.00 | 0.00 | 55 | 1008.1 | |
| 20260506091733 | 18 | 0.0 | 0.0 | 0.00 | 0.00 | 0.00 | 61 | 1008.0 | |
| 20260506090733 | 18 | 0.0 | 0.0 | 0.00 | 0.00 | 0.00 | 60 | 1008.1 | |
| 20260506085733 | 18 | 0.0 | 0.0 | 0.00 | 0.00 | 0.00 | 62 | 1008.1 | |
| 20260506084733 | 18 | 0.0 | 0.0 | 0.00 | 0.00 | 0.00 | 62 | 1008.1 | |
| 20260506083733 | 18 | 0.0 | 0.0 | 0.00 | 0.00 | 0.00 | 66 | 1008.0 | |
| 20260506082733 | 18 | 0.0 | 0.0 | 0.00 | 0.00 | 0.00 | 64 | 1008.0 | |
| 20260506081733 | 17 | 0.0 | 0.0 | 0.00 | 0.00 | 0.00 | 66 | 1007.9 | |
| 20260506080733 | 18 | 0.0 | 0.0 | 0.00 | 0.00 | 0.00 | 65 | 1008.0 | |
| 20260506072733 | 16 | 0.0 | 0.0 | 0.00 | 0.00 | 0.00 | 75 | 1008.1 | |
| 20260506071734 | 16 | 0.0 | 0.0 | 0.00 | 0.00 | 0.00 | 77 | 1008.1 | |
| 20260506070734 | 16 | 0.0 | 0.0 | 0.00 | 0.00 | 0.00 | 79 | 1008.1 | |
| 20260506061734 | 15 | 0.0 | 0.0 | 0.00 | 0.00 | 0.00 | 87 | 1007.7 | |
| 20260506060734 | 15 | 0.0 | 0.0 | 0.00 | 0.00 | 0.00 | 90 | 1007.8 | |
| 20260506050734 | 12 | 0.0 | 0.0 | 0.00 | 0.00 | 0.00 | 10 | 1007.7 | |
| 20260506044734 | 12 | 0.0 | 0.0 | 0.00 | 0.00 | 0.00 | 10 | 1007.6 | |
| 20260506043734 | 12 | 0.0 | 0.0 | 0.00 | 0.00 | 0.00 | 10 | 1007.9 | |
| 20260506042734 | 12 | 0.0 | 0.0 | 0.00 | 0.00 | 0.00 | 10 | 1007.6 | |
| 20260506041734 | 12 | 0.0 | 0.0 | 0.00 | 0.00 | 0.00 | 10 | 1007.4 | |
| 20260506040734 | 12 | 0.0 | 0.0 | 0.00 | 0.00 | 0.00 | 10 | 1007.3 | |
| 20260506035737 | 12 | 0.0 | 0.0 | 0.00 | 0.00 | 0.00 | 10 | 1007.1 | |
| 20260506034733 | 12 | 0.0 | 0.0 | 0.00 | 0.00 | 0.00 | 10 | 1007.0 | |
| 20260506033732 | 12 | 0.0 | 0.0 | 0.00 | 0.00 | 0.00 | 10 | 1007.1 | |
| 20260506032732 | 12 | 0.0 | 0.0 | 0.00 | 0.00 | 0.00 | 10 | 1007.1 | |
| 20260506031733 | 12 | 0.0 | 0.0 | 0.00 | 0.00 | 0.00 | 10 | 1007.1 | |
| 20260506030732 | 12 | 0.0 | 0.0 | 0.00 | 0.00 | 0.00 | 10 | 1007.0 | |
| 20260506025733 | 12 | 0.0 | 0.0 | 0.00 | 0.00 | 0.00 | 10 | 1007.0 | |
| 20260506024733 | 12 | 0.0 | 0.0 | 0.00 | 0.00 | 0.00 | 10 | 1007.1 | |
| 20260506023733 | 12 | 0.0 | 0.0 | 0.00 | 0.00 | 0.00 | 10 | 1007.0 | |
| 20260506022733 | 13 | 0.0 | 0.0 | 0.00 | 0.00 | 0.00 | 10 | 1007.0 | |
| 20260506021733 | 13 | 0.0 | 0.0 | 0.00 | 0.00 | 0.00 | 10 | 1007.1 | |
| 20260506020733 | 13 | 0.0 | 0.0 | 0.00 | 0.00 | 0.00 | 10 | 1007.1 | |
| 20260506015733 | 13 | 0.0 | 0.0 | 0.00 | 0.00 | 0.00 | 10 | 1007.0 | |
| 20260506014733 | 13 | 0.0 | 0.0 | 0.00 | 0.00 | 0.00 | 10 | 1007.1 | |
| 20260506013733 | 13 | 0.0 | 0.0 | 0.00 | 0.00 | 0.00 | 10 | 1007.0 | |
| 20260506012733 | 13 | 0.0 | 0.0 | 0.00 | 0.00 | 0.00 | 10 | 1006.6 | |
| 20260506011733 | 13 | 0.0 | 0.0 | 0.00 | 0.00 | 0.00 | 10 | 1006.7 | |
| 20260506010733 | 14 | 0.0 | 0.0 | 0.00 | 0.00 | 0.00 | 95 | 1006.7 | |
| 20260506005733 | 14 | 0.0 | 0.0 | 0.00 | 0.00 | 0.00 | 95 | 1006.8 | |
| 20260506004733 | 14 | 0.0 | 0.0 | 0.00 | 0.00 | 0.00 | 94 | 1006.8 | |
| 20260506003733 | 15 | 0.0 | 0.0 | 0.00 | 0.00 | 0.00 | 92 | 1006.5 | |
| 20260506002733 | 14 | 0.0 | 0.0 | 0.00 | 0.00 | 0.00 | 92 | 1006.4 | |
| 20260506001733 | 14 | 0.0 | 0.0 | 0.00 | 0.00 | 0.00 | 92 | 1006.5 | |
| 20260506000733 | 15 | 0.0 | 0.0 | 0.00 | 0.00 | 0.00 | 92 | 1006.6 | |
| 20260505235733 | 14 | 0.0 | 0.0 | 0.00 | 0.00 | 0.00 | 94 | 1006.6 | |
| 20260505234733 | 14 | 0.0 | 0.0 | 0.00 | 0.00 | 0.00 | 94 | 1006.7 | |
| 20260505233733 | 14 | 0.0 | 0.0 | 0.00 | 0.00 | 0.00 | 95 | 1006.9 | |
| 20260505232733 | 14 | 0.0 | 0.0 | 0.00 | 0.00 | 0.00 | 96 | 1006.9 | |
| 20260505231733 | 14 | 0.0 | 0.0 | 0.00 | 0.00 | 0.00 | 95 | 1006.9 | |
| 20260505230733 | 15 | 0.0 | 0.0 | 0.00 | 0.00 | 0.00 | 97 | 1006.9 | |
| 20260505225733 | 15 | 0.0 | 0.0 | 0.00 | 0.00 | 0.00 | 96 | 1006.7 | |
| 20260505224733 | 16 | 0.0 | 0.0 | 0.00 | 0.00 | 0.00 | 94 | 1006.5 | |
| 20260505223733 | 16 | 0.0 | 0.0 | 0.00 | 0.00 | 0.00 | 92 | 1006.5 | |
| 20260505222733 | 16 | 0.0 | 0.0 | 0.00 | 0.00 | 0.00 | 90 | 1006.5 | |
| 20260505221733 | 16 | 0.0 | 0.0 | 0.00 | 0.00 | 0.00 | 89 | 1006.3 | |
| 20260505220733 | 17 | 0.0 | 0.0 | 0.00 | 0.00 | 0.00 | 86 | 1006.2 | |
| 20260505215733 | 17 | 0.0 | 0.0 | 0.00 | 0.00 | 0.00 | 84 | 1005.9 | |
| 20260505214733 | 17 | 0.0 | 0.0 | 0.00 | 0.00 | 0.00 | 80 | 1005.4 | |
| 20260505213733 | 17 | 0.0 | 0.0 | 0.00 | 0.00 | 0.00 | 80 | 1004.9 | |
| 20260505212733 | 17 | 0.0 | 0.0 | 0.00 | 0.00 | 0.00 | 80 | 1005.0 | |
| 20260505211733 | 17 | 0.0 | 0.0 | 0.00 | 0.00 | 0.00 | 80 | 1005.0 | |
| 20260505210733 | 17 | 0.0 | 0.0 | 0.00 | 0.00 | 0.00 | 77 | 1004.9 | |
| 20260505205733 | 17 | 0.0 | 0.0 | 0.00 | 0.00 | 0.00 | 76 | 1005.0 | |
| 20260505204733 | 17 | 0.0 | 0.0 | 0.00 | 0.00 | 0.00 | 76 | 1004.9 | |
| 20260505203733 | 17 | 0.0 | 0.0 | 0.00 | 0.00 | 0.00 | 77 | 1004.9 | |
| 20260505202733 | 17 | 0.0 | 0.0 | 0.00 | 0.00 | 0.00 | 78 | 1004.8 | |
| 20260505201733 | 17 | 0.0 | 0.0 | 0.00 | 0.00 | 0.00 | 77 | 1004.9 | |
| 20260505200733 | 17 | 0.0 | 0.0 | 0.00 | 0.00 | 0.00 | 79 | 1004.8 | |
| 20260505195733 | 17 | 0.0 | 0.0 | 0.00 | 0.00 | 0.00 | 80 | 1005.0 | |
| 20260505194733 | 17 | 0.0 | 0.0 | 0.00 | 0.00 | 0.00 | 80 | 1005.0 | |
| 20260505192733 | 17 | 0.0 | 0.0 | 0.00 | 0.00 | 0.00 | 83 | 1004.7 | |
| 20260505191733 | 17 | 0.0 | 0.0 | 0.00 | 0.00 | 0.00 | 82 | 1004.7 | |
| 20260505190733 | 17 | 0.0 | 0.0 | 0.00 | 0.00 | 0.00 | 80 | 1004.6 | |
| 20260505185733 | 17 | 0.0 | 0.0 | 0.00 | 0.00 | 0.00 | 80 | 1004.5 | |
| 20260505184733 | 17 | 0.0 | 0.0 | 0.00 | 0.00 | 0.00 | 78 | 1004.6 | |
| 20260505183733 | 17 | 0.0 | 0.0 | 0.00 | 0.00 | 0.00 | 78 | 1004.6 | |
| 20260505182733 | 17 | 0.0 | 0.0 | 0.00 | 0.00 | 0.00 | 80 | 1004.6 | |
| 20260505181733 | 17 | 0.0 | 0.0 | 0.00 | 0.00 | 0.00 | 82 | 1004.6 | |
| 20260505180734 | 16 | 0.0 | 0.0 | 0.00 | 0.00 | 0.00 | 83 | 1004.9 | |
| 20260505175734 | 17 | 0.0 | 0.0 | 0.00 | 0.00 | 0.00 | 79 | 1005.1 | |
| 20260505174734 | 17 | 0.0 | 0.0 | 0.00 | 0.00 | 0.00 | 77 | 1005.0 | |
| 20260505173733 | 17 | 0.0 | 0.0 | 0.00 | 0.00 | 0.00 | 74 | 1005.3 | |
| 20260505172734 | 18 | 0.0 | 0.0 | 0.00 | 0.00 | 0.00 | 73 | 1005.5 | |
| 20260505171734 | 18 | 0.0 | 0.0 | 0.00 | 0.00 | 0.00 | 69 | 1005.1 | |
| 20260505170734 | 20 | 0.0 | 0.0 | 0.00 | 0.00 | 0.00 | 59 | 1005.6 | |
| 20260505165734 | 21 | 0.0 | 0.0 | 0.00 | 0.00 | 0.00 | 47 | 1005.8 | |
| 20260505164734 | 22 | 0.0 | 0.0 | 0.00 | 0.00 | 0.00 | 42 | 1005.4 | |
| 20260505162734 | 25 | 0.0 | 0.0 | 0.00 | 0.00 | 0.00 | 35 | 1004.6 | |
| 20260505161734 | 25 | 0.0 | 0.0 | 0.00 | 0.00 | 0.00 | 34 | 1004.7 | |
| 20260505160734 | 25 | 0.0 | 0.0 | 0.00 | 0.00 | 0.00 | 32 | 1004.7 |